Regional Weather Roundup
Issued by NWS

Home | Current Version | Previous Version | Graphics & Text | Print | Product List | Glossary On
Versions: 1 2 3 4 5 6 7 8 9 10 11 12 13 14 15 16 17 18 19 20 21 22 23 24 25 26 27 28 29 30 31 32 33 34 35 36 37 38 39 40 41 42 43 44 45 46 47 48 49 50
000
ASUS45 KTFX 251610
RWRMT
MONTANA REGIONAL WEATHER ROUNDUP
NATIONAL WEATHER SERVICE GREAT FALLS MT
1000 AM MDT TUE APR 25 2017

NOTE: "FAIR" INDICATES FEW OR NO CLOUDS BELOW 12000 FEET WITH NO
SIGNIFICANT WEATHER AND/OR OBSTRUCTIONS TO VISIBILITY.

MTZ001>007-043-251700-
WEST OF THE DIVIDE

CITY           SKY/WX    TMP DP  RH WIND       PRES   REMARKS
KALISPELL      CLOUDY    45  42  89 S9        29.81S
MISSOULA       PTSUNNY   43  40  89 CALM      29.86F
BUTTE          CLOUDY    39  30  70 NW12      29.81R WCI  32
MULLAN PASS    FOG       31  31 100 VRB7      29.82R VSB 1/4 WCI  24
ANACONDA         N/A     39  34  81 N5        29.82R
DEER LODGE       N/A     43  30  61 NW10      29.84R
EUREKA           N/A     46  37  71 SE5       29.80S
HAMILTON         N/A     45  37  76 SE3       29.86S
PLAINS           N/A     45  39  79 CALM      29.87
$$

MTZ008-052>055-251700-
SOUTHWEST MONTANA

CITY           SKY/WX    TMP DP  RH WIND       PRES   REMARKS
BOZEMAN        LGT RAIN  40  37  89 CALM      29.80R
DILLON         CLOUDY    42  34  73 MISG      29.79R
W YELLOWSTONE  CLOUDY    36  32  87 CALM      29.74R
ENNIS          CLOUDY    36  36 100 N13       29.83  WCI  27
THREE FORKS      N/A     41  27  57 CALM      29.81R
TWIN BRIDGES     N/A     47  32  56 N13       29.80
$$

MTZ009-010-012-014-046-048-049-054-251700-
EAST SLOPES AND CENTRAL MONTANA

CITY           SKY/WX    TMP DP  RH WIND       PRES   REMARKS
CUT BANK       FOG       35  35 100 SE8       29.80R VSB 1/4 WCI  29
GREAT FALLS    CLOUDY    40  37  89 E6        29.80S
MALMSTROM AFB  CLOUDY    41  39  93 NE5       29.81S
HELENA         LGT RAIN  43  39  86 SW13      29.80R
AUGUSTA        PTSUNNY   40  38  93 CALM      29.79R
BOWMANS CRNR   PTSUNNY   40  36  84 CALM      29.77S
CHOTEAU          N/A     39  39 100 CALM      29.81S
FAIRFIELD      CLOUDY    40  38  94 CALM      29.79R
POWER          LGT RAIN  39  38  97 E5        29.79R
RAYNESFORD     CLOUDY    39  37  93 E10       29.80S WCI  32
ULM            PTSUNNY   43  38  83 CALM      29.80R
$$

MTZ011-013-016-021-045-047-050-051-251700-
NORTH CENTRAL MONTANA

CITY           SKY/WX    TMP DP  RH WIND       PRES   REMARKS
HAVRE          CLOUDY    35  28  75 E21       29.86S WCI  24
LEWISTOWN      CLOUDY    35  31  85 SE13      29.81S WCI  26
CHINOOK          N/A     34  27  75 E16G24    29.90S WCI  23
DENTON         PTSUNNY   33  32  96 MISG      29.80R
FORT BENTON      N/A     37  34  87 MISG      29.84S
GEYSER         LGT RAIN  34  33  98 NE6       29.81R FOG     WCI  29
GRASS RANGE    FOG       31  31 100 E7        29.82R VSB 5/16WCI  24
JUDITH GAP     FOG       32  32  99 S14       29.80R VSB 3/16WCI  22
STANFORD       LGT SNOW  34  34 100 E6        29.81R WCI  28
WINIFRED       CLOUDY    30 N/A N/A E15       29.83R FOG     WCI  19
$$

MTZ017>020-022>027-061-062-251700-
NORTHEAST MONTANA

CITY           SKY/WX    TMP DP  RH WIND       PRES   REMARKS
GLASGOW        CLOUDY    32  25  75 E9        29.94R WCI  24
JORDAN           N/A     31  26  82 NE12      29.90R WCI  22
SIDNEY         CLOUDY    32  25  75 E10       29.96R WCI  24
WOLF POINT     CLOUDY    34  24  67 E14       29.97R WCI  25
PLENTYWOOD       N/A     30  21  69 NE9       29.95S WCI  22
POPLAR           N/A     32  23  69 NE10      29.96R WCI  24
SCOBEY           N/A     31  19  61 NE7       29.93  WCI  24
$$

MTZ028>42-056>058-251700-
SOUTHCENTRAL AND SOUTHEAST MONTANA

CITY           SKY/WX    TMP DP  RH WIND       PRES   REMARKS
BAKER          CLOUDY    28  24  85 NE15      29.85S WCI  16
BILLINGS       CLOUDY    32  30  92 E13       29.84R WCI  22
LIVINGSTON     LGT RAIN  38  37  97 NE10      29.79R WCI  31
MILES CITY     CLOUDY    31  27  85 NE15      29.88R WCI  20
BIG TIMBER     CLOUDY    36  36 100 E9        29.83R FOG     WCI  29
EKALAKA          N/A     26  23  88 NE9       29.80R WCI  17
LAUREL           N/A     33  25  73 NE6       29.84S WCI  27
ROUNDUP          N/A     30  26  85 NE9       29.79R WCI  22
$$

REGIONAL REPORTS...DAKOTAS

CITY           SKY/WX    TMP DP  RH WIND       PRES   REMARKS
WILLISTON      CLOUDY    33  22  63 NE15      29.96R WCI  23
MINOT          CLOUDY    32  25  75 N17       29.91R WCI  21
DICKINSON      CLOUDY    25  23  92 N15       29.85R WCI  13
BEACH          CLOUDY    27  27 100 NE9       29.91R WCI  17
TIOGA          CLOUDY    28  25  86 NE21G26   29.92R WCI  15
WATFORD CITY   CLOUDY    30  25  80 NE12      29.94R WCI  21
BISMARCK       CLOUDY    31  26  82 NE18      29.88R WCI  19
GRAND FORKS    CLOUDY    34  28  79 N26G35    29.81R WCI  21
FARGO          CLOUDY    35  31  85 N24G32    29.72F WCI  23
BUFFALO SD       N/A     28  27  96 NE18      29.74R WCI  15
RAPID CITY     LGT SNOW  30  28  92 N14       29.73R VSB 3/4 WCI  19
$$

REGIONAL REPORTS...WYOMING/IDAHO/WASHINGTON

CITY           SKY/WX    TMP DP  RH WIND       PRES   REMARKS
GILLETTE       SNOW      27  32 100 N18G26    29.68R WCI  14
SHERIDAN       SNOW      32  30  92 N13       29.78R VSB 1/4 WCI  22
CODY           FLURRIES  34  31  88 NW16      29.77R WCI  24
YELLOWSTONE LA   N/A     33  27  78 VRB3      29.74R
IDAHO FALLS    LGT RAIN  34  34 100 SW9       29.78R WCI  27
SALMON         CLOUDY    45  34  65 N5        29.84S
BOISE          SUNNY     46  35  65 NW17G23   29.93S
SPOKANE        FOG       42  40  92 SW13      29.88R VSB 1/2
$$

REGIONAL REPORTS...ALBERTA

CITY           SKY/WX    TMP DP  RH WIND       PRES   REMARKS
EDMONTON       CLOUDY    34  28  80 N5        29.92R
CALGARY        LGT SNOW  30  28  93 N13       29.86R VSB 1   WCI  20
LETHBRIDGE     LGT RAIN  37  36  93 VRB2      29.81R FOG
MEDICINE HAT   LGT RAIN  39  32  75 NE8       29.85S
WATERTON GATE    N/A     32  34 100 NE8         N/A  WCI  25
CARDSTON         N/A     34  32  93 N8          N/A  WCI  27
$$

REGIONAL REPORTS...SASKATCHEWAN

CITY           SKY/WX    TMP DP  RH WIND       PRES   REMARKS
SWIFT CURRENT  CLOUDY    27  27 100 E12G18    29.95R WCI  16
REGINA         CLOUDY    28  18  64 E9        30.03R WCI  20
SASKATOON      PTSUNNY   32  23  69 SE10      30.08R WCI  24
CYPRESS HILLS    N/A     25  21  86 SE8         N/A  WCI  16
VAL MARIE        N/A     30  27  86 E12         N/A  WCI  21
ROCKGLEN         N/A     27  23  86 NE3         N/A
ASSINIBOIA       N/A     32  28  86 SE8         N/A  WCI  25
$$



USA.gov is the U.S. government's official web portal to all federal, state and local government web resources and services.